Погода в Виннипеге

Канада     49°53′16″N   97°08′03″W
темп.,
°C
ветер,
м/с
пор.,
м/с
влажн.,
%
обл.,
%
осадки,
мм/ч
давл.,
гПа
погр.,
м
23 апреля, пт
пт2301:000с7127468 0.0 1012620
04:00−2с71171100 0.0 1014789
07:00−3с71173100 0.0 1016837
10:00−2с7943100 0.0 10181137
13:000с6831100 0.0 10191429
16:00+3ссв7826100 0.0 10181817
19:00+3св5729100 0.0 10191837
22:00−1вюв1143100 0.0 102022
24 апреля, сб
сб2401:00−1ююз22440 0.0 102027
04:00−1юз33510 0.0 102058
07:00−1юз36470 0.0 1020163
10:00+4юз56291 0.0 1019795
13:00+7юз5623100 0.0 10172921
16:00+9юз5821100 0.0 10143278
19:00+9юз5925100 0.0 10111984
22:00+3ссз6974100 0.0 1014537
25 апреля, вс
вс2501:00−1ссв36793 0.0 1017278
04:00−2всв236510 0.0 101772
07:00−1юв246216 0.0 1017169
10:00+4юв4436100 0.0 1015601
13:00+7юв4528100 0.0 10131082
16:00+10ююв5735100 0.0 10101573
19:00+9юв5943100 0.0 10081057
22:00+6юв71369100 0.6 10081111
26 апреля, пн
пн2601:00+3ююв71396100 1.6 1006976
04:00+4ююв41096100 0.8 1004711
07:00+4ююв3687100 0.8 1003425
10:00+5юв2284100 0.0 1003369
13:00+6св4583100 0.0 1002596
16:00+5св5890100 1.3 1002731
19:00+3св61096100 6.7 1003549
22:00+1с41098100 6.3 1004392
27 апреля, вт
вт2701:00+1с51098100 9.8 1005448
04:00+1ссз51199100 2.8 1006532
07:00+2с51098100 2.9 1007662
10:00+3ссз5792100 0.1 1010811
13:00+5ссз6777100 0.1 1011983
16:00+7ссз4569100 0.0 10121120
19:00+8с236588 0.0 1012347
22:00+3вюв11875 0.0 101412